Wind_Speed
3 3 3 4 6 7 9 10 12 13 15 16 17 18 18 19 19 19 19 18 18 17 16 14 13 12 12 13 14 16 18 20 23 25 26 27 28 29 30 29 28 28 28
3 3 4 5 5 7 9 10 12 13 14 16 17 18 18 19 20 19 19 18 17 17 16 15 13 12 11 11 12 14 17 18 19 22 25 27 28 28 29 29 28 28 29
3 4 4 5 5 7 9 10 12 13 14 15 16 17 18 19 20 20 19 18 17 17 16 15 13 11 10 9 10 12 14 16 17 20 22 25 27 27 29 29 29 29 29
3 4 5 5 6 7 9 10 11 12 13 15 15 17 18 19 20 20 19 18 17 16 16 14 12 10 8 7 7 9 11 13 15 18 20 22 25 26 27 28 29 29 29
3 4 5 5 6 7 8 10 11 12 13 14 15 16 17 18 19 20 19 18 18 17 16 14 12 9 7 5 5 6 8 10 13 16 18 21 23 24 25 27 28 28 28
4 4 5 5 6 7 8 9 10 11 12 13 14 16 17 18 19 19 18 18 18 17 16 14 12 9 6 4 3 4 6 8 9 12 15 18 20 23 24 25 27 28 27
5 5 5 5 6 7 8 9 10 11 12 13 14 15 16 17 18 18 18 18 17 17 16 15 12 9 6 4 2 2 5 6 8 9 12 15 18 21 22 23 25 26 26
5 5 6 6 6 7 7 8 9 10 11 12 13 14 15 16 17 18 18 17 17 17 16 15 13 10 7 5 3 1 2 4 6 8 10 12 15 18 20 21 22 23 25
6 6 6 7 7 7 7 8 9 10 11 12 13 14 14 15 16 17 17 17 17 17 16 15 13 11 8 6 4 2 0 2 4 6 8 10 13 15 17 18 19 21 23
7 7 7 8 8 8 8 8 9 10 10 11 12 13 14 14 15 16 16 16 17 17 16 15 14 12 9 7 5 3 1 1 3 5 7 9 11 13 16 17 18 20 22
8 9 9 9 9 9 9 9 9 9 10 10 11 12 13 14 14 15 15 15 16 16 15 14 14 12 10 7 5 4 2 1 1 3 5 7 9 11 13 15 16 17 20
9 9 10 10 10 10 10 10 10 10 10 10 11 11 12 13 13 13 14 14 14 15 14 14 13 13 12 9 7 5 3 2 1 2 4 6 8 10 11 12 14 15 16
11 11 11 11 11 12 12 11 11 11 10 10 10 11 11 12 12 12 13 13 13 13 13 13 12 12 11 10 8 6 5 3 1 1 3 5 6 8 10 11 12 13 14
13 13 13 13 13 13 13 13 13 12 12 11 11 11 11 11 11 11 12 12 12 12 12 12 12 11 11 10 9 7 6 5 3 1 1 3 5 7 8 10 11 12 13
14 14 14 14 14 15 15 15 15 14 13 13 12 11 11 11 11 11 11 11 11 11 11 11 11 11 10 10 9 7 6 5 4 2 1 1 3 5 7 9 9 10 12
16 16 16 16 16 16 16 17 16 16 15 15 14 13 12 11 11 11 10 10 10 10 10 10 10 9 9 9 9 8 6 5 4 3 2 1 2 3 5 7 8 9 11
18 18 18 18 18 18 18 18 18 18 17 17 16 15 14 13 12 12 11 10 10 10 10 9 9 9 8 8 8 8 6 5 5 4 3 2 2 3 4 5 7 8 10
20 20 20 21 21 21 21 21 20 20 19 19 18 17 16 15 14 13 12 11 11 10 10 9 9 8 8 8 7 7 7 6 5 4 4 4 3 3 4 5 6 8 9
23 23 23 23 23 23 23 23 22 22 22 21 21 20 19 18 17 15 14 13 12 12 11 10 9 9 8 8 7 7 7 6 6 6 5 5 5 5 5 6 7 8 9
26 25 25 25 26 26 25 25 25 24 24 24 23 22 21 20 19 18 17 16 14 13 12 11 11 10 10 9 9 8 8 7 7 7 7 7 7 7 7 8 8 9 10
30 29 28 28 28 28 28 28 27 27 26 26 26 25 24 23 22 21 19 18 17 16 14 13 12 12 11 11 10 10 10 9 9 9 9 9 9 9 9 10 10 11 11
33 33 32 32 31 31 31 30 30 30 29 29 28 27 26 25 25 23 22 21 19 18 17 16 15 14 13 13 13 12 12 11 11 11 11 11 11 11 11 12 12 13 14
37 37 36 35 35 35 35 34 33 33 32 31 31 30 29 28 27 26 25 23 22 21 19 18 17 16 15 15 15 14 14 14 13 13 13 13 13 13 13 14 14 14 15
40 40 40 39 38 38 38 38 37 36 35 34 33 33 31 31 30 29 28 26 25 23 22 21 20 19 18 17 17 16 16 16 15 15 15 15 15 15 15 16 16 16 17
43 43 43 42 42 41 41 41 40 40 39 37 36 35 34 33 32 32 30 29 28 26 25 24 23 22 21 20 19 19 18 18 17 17 17 17 17 17 18 18 18 19 19
46 46 46 45 45 44 43 44 43 43 42 41 39 38 37 36 35 34 33 32 30 29 28 27 26 24 23 22 21 21 20 20 20 19 19 19 19 20 20 20 20 20 21
Wind_Direction
271 287 303 319 327 333 338 340 342 342 344 346 347 346 346 346 344 342 339 336 333 331 328 320 308 294 279 266 256 245 236 231 228 226 224 222 221 220 220 220 221 221 221
275 291 303 314 323 331 334 336 337 340 343 345 346 346 347 348 347 345 341 339 337 334 332 328 319 305 287 271 257 244 235 232 228 225 222 220 219 219 218 217 218 219 221
283 296 298 309 320 328 332 333 336 339 341 344 346 347 348 349 350 348 346 343 341 340 338 334 329 317 297 278 259 242 231 229 226 223 221 220 217 217 217 216 217 218 220
285 292 299 307 318 325 329 332 336 338 341 344 347 350 351 352 352 351 350 348 346 344 342 341 337 329 311 287 262 240 229 226 223 220 219 219 217 217 217 217 217 218 220
289 283 292 304 316 324 329 332 335 339 342 345 347 349 351 353 354 353 352 351 351 350 348 347 345 338 326 304 264 236 229 225 221 219 218 217 217 216 216 217 218 217 219
295 285 289 302 311 321 329 332 336 339 342 345 347 349 351 353 354 355 355 355 356 356 355 354 353 350 345 327 278 236 225 223 221 218 216 215 215 216 217 218 219 219 220
299 290 289 297 308 317 324 330 335 339 343 347 349 351 353 355 356 358 358 359 360 360 360 1 1 360 355 349 314 241 220 216 216 214 212 211 212 215 218 221 221 220 220
294 287 285 291 301 308 317 325 333 339 344 347 349 351 354 357 358 0 2 4 4 5 6 8 8 9 9 9 3 302 223 213 211 208 207 208 210 212 216 218 221 220 220
294 285 280 284 293 300 308 318 327 335 340 344 348 352 354 356 359 1 5 8 8 8 9 11 12 14 16 19 18 20 191 207 208 206 206 208 209 212 214 217 220 220 220
297 289 281 280 285 292 300 308 319 328 335 340 345 351 354 356 359 2 5 8 10 11 12 14 16 16 18 20 21 14 9 229 214 212 212 212 212 213 218 220 221 221 219
294 288 282 278 279 284 291 299 308 317 325 333 339 345 352 356 359 2 4 7 9 12 15 17 20 21 21 21 21 21 20 12 211 209 211 211 212 215 218 221 220 222 222
290 286 280 277 276 279 284 289 296 303 312 322 330 336 344 351 356 359 2 5 8 11 14 17 19 21 23 23 22 22 19 12 236 220 217 213 212 216 217 218 219 223 225
284 282 279 278 276 276 278 283 288 293 300 309 318 325 333 342 349 354 358 2 5 8 11 14 16 19 21 23 25 27 23 19 350 241 230 219 214 215 216 217 221 224 227
281 279 278 278 276 275 276 278 281 285 290 296 304 312 321 330 339 346 351 356 0 4 7 10 13 16 18 22 25 29 29 28 28 22 234 225 223 220 218 218 221 226 230
282 277 275 275 275 275 275 275 277 279 282 285 291 298 307 317 326 335 340 344 350 355 1 5 8 12 14 16 19 21 25 28 29 30 352 253 234 229 225 223 224 226 228
284 279 276 274 273 272 273 273 273 274 276 278 281 286 294 302 311 320 328 334 338 343 348 353 358 2 7 10 11 13 15 16 18 19 2 315 260 236 229 228 228 229 230
286 283 278 275 274 273 272 272 271 271 272 272 274 278 282 288 295 303 312 319 324 330 335 338 341 347 352 357 1 4 2 1 3 6 355 331 297 263 242 238 237 237 237
283 282 279 277 275 273 271 271 270 269 269 269 270 272 275 279 284 289 295 302 310 316 321 323 326 329 334 340 346 352 352 345 340 340 339 331 313 291 272 261 257 253 252
280 279 277 276 275 273 271 270 269 268 268 267 267 268 270 272 275 279 283 289 295 302 307 310 311 312 315 320 327 332 335 335 330 321 318 314 302 295 289 279 271 266 262
280 278 276 275 273 272 271 269 268 267 266 265 265 265 266 268 269 271 275 280 284 289 294 298 300 301 302 304 307 311 314 316 317 314 307 302 298 291 287 285 281 276 272
278 276 274 272 272 270 269 268 267 266 265 264 263 263 263 264 265 266 269 272 275 279 283 287 290 291 292 294 296 298 299 300 302 303 301 298 295 291 286 284 282 278 276
277 275 273 271 269 268 267 266 266 264 263 262 262 261 261 261 262 263 265 267 269 272 275 278 281 284 285 286 288 289 290 292 293 295 296 294 292 290 288 286 284 280 278
277 275 273 270 268 266 265 264 263 263 263 261 261 260 259 259 259 260 261 263 265 267 269 272 275 277 279 281 281 282 284 285 287 289 290 290 289 288 287 285 285 283 280
276 275 273 271 268 265 264 262 261 260 260 260 260 259 258 257 257 257 258 259 261 263 265 267 270 272 275 276 277 278 280 281 282 284 286 287 288 288 287 285 284 284 284
275 273 272 270 268 266 263 262 260 259 258 258 258 257 256 255 256 256 256 257 258 259 261 263 265 268 271 272 273 275 276 277 279 281 283 285 286 286 286 285 284 284 284
275 273 271 269 267 266 263 261 259 258 256 256 256 255 255 254 254 254 254 255 256 257 258 260 262 264 267 269 271 272 273 275 277 280 282 283 284 285 286 285 285 284 284
Height
5839 5839 5838 5837 5837 5835 5834 5832 5830 5827 5824 5821 5818 5814 5810 5806 5802 5798 5794 5791 5787 5783 5780 5777 5774 5773 5772 5771 5771 5772 5774 5776 5779 5782 5785 5789 5793 5797 5801 5806 5810 5814 5818
5838 5837 5837 5836 5835 5834 5833 5831 5828 5826 5823 5820 5816 5813 5809 5805 5801 5796 5792 5788 5785 5781 5777 5774 5771 5769 5768 5767 5767 5768 5769 5771 5774 5777 5780 5784 5788 5792 5796 5801 5805 5809 5813
5836 5836 5835 5835 5834 5833 5831 5829 5827 5824 5822 5819 5815 5811 5807 5803 5799 5795 5790 5786 5782 5779 5775 5772 5769 5766 5765 5764 5764 5764 5766 5768 5770 5772 5776 5779 5783 5786 5791 5796 5800 5804 5808
5835 5835 5834 5833 5832 5831 5830 5828 5826 5823 5820 5817 5814 5810 5806 5802 5798 5793 5789 5785 5781 5777 5773 5770 5767 5764 5762 5761 5761 5761 5763 5765 5766 5769 5772 5775 5778 5783 5787 5792 5796 5800 5804
5833 5833 5832 5831 5831 5830 5828 5827 5824 5822 5819 5816 5813 5809 5805 5801 5797 5792 5788 5784 5780 5776 5772 5768 5765 5762 5761 5760 5759 5760 5761 5762 5764 5766 5768 5771 5775 5779 5783 5787 5791 5795 5799
5832 5831 5831 5830 5829 5828 5827 5825 5823 5821 5818 5815 5812 5808 5804 5800 5796 5792 5787 5783 5779 5775 5771 5767 5764 5761 5760 5759 5758 5758 5759 5760 5761 5763 5765 5768 5771 5775 5779 5783 5786 5790 5795
5830 5830 5829 5828 5828 5827 5826 5824 5822 5820 5817 5814 5811 5807 5804 5800 5796 5791 5787 5783 5779 5775 5771 5767 5764 5761 5759 5758 5757 5757 5758 5759 5760 5761 5763 5766 5769 5772 5775 5779 5782 5786 5790
5828 5828 5827 5827 5826 5825 5824 5823 5821 5819 5816 5813 5810 5807 5803 5799 5795 5791 5787 5783 5779 5775 5771 5768 5764 5762 5760 5758 5757 5757 5757 5758 5758 5760 5761 5764 5766 5769 5772 5775 5778 5782 5785
5827 5826 5825 5825 5824 5824 5823 5821 5819 5817 5815 5812 5809 5806 5802 5799 5795 5791 5787 5783 5779 5776 5772 5768 5765 5763 5760 5759 5758 5757 5757 5757 5758 5759 5760 5762 5764 5767 5770 5772 5775 5779 5781
5824 5824 5823 5823 5822 5821 5820 5819 5818 5816 5814 5811 5808 5805 5802 5798 5795 5791 5787 5784 5780 5776 5773 5769 5766 5764 5762 5760 5758 5757 5757 5757 5757 5758 5759 5761 5763 5765 5767 5770 5772 5775 5778
5822 5822 5821 5820 5820 5819 5818 5817 5816 5814 5812 5810 5807 5805 5802 5798 5795 5791 5788 5784 5781 5777 5774 5771 5768 5765 5763 5761 5759 5758 5757 5757 5757 5758 5758 5760 5761 5763 5765 5767 5769 5771 5774
5820 5819 5818 5818 5817 5816 5815 5814 5813 5812 5810 5808 5806 5804 5801 5798 5794 5791 5788 5785 5781 5778 5775 5772 5769 5767 5764 5762 5760 5759 5758 5757 5757 5757 5758 5758 5759 5761 5763 5765 5767 5769 5771
5817 5816 5815 5815 5814 5813 5813 5812 5811 5809 5808 5806 5804 5802 5800 5797 5794 5791 5788 5785 5782 5779 5776 5773 5771 5768 5765 5763 5761 5759 5758 5757 5757 5757 5757 5757 5758 5759 5761 5762 5764 5766 5768
5813 5813 5812 5811 5811 5810 5809 5808 5807 5806 5805 5803 5802 5800 5798 5796 5793 5790 5787 5785 5782 5779 5776 5774 5771 5769 5766 5764 5762 5760 5759 5758 5757 5757 5756 5757 5757 5758 5759 5761 5762 5764 5765
5809 5808 5808 5807 5807 5806 5805 5804 5803 5803 5801 5800 5799 5797 5796 5794 5791 5789 5786 5784 5782 5779 5777 5774 5772 5769 5767 5765 5763 5761 5760 5758 5757 5757 5756 5756 5756 5757 5758 5759 5760 5761 5763
5805 5804 5803 5803 5802 5801 5801 5800 5799 5798 5797 5797 5795 5794 5793 5791 5789 5787 5785 5783 5780 5778 5776 5774 5772 5769 5767 5765 5763 5762 5760 5759 5758 5757 5756 5756 5756 5756 5756 5757 5758 5759 5760
5800 5799 5799 5798 5797 5796 5796 5795 5794 5793 5793 5792 5791 5790 5789 5788 5786 5785 5783 5781 5779 5777 5775 5773 5771 5769 5767 5765 5763 5762 5760 5759 5758 5757 5756 5755 5755 5755 5755 5755 5756 5756 5757
5795 5794 5793 5792 5792 5791 5790 5789 5788 5788 5787 5787 5786 5785 5785 5784 5782 5781 5780 5778 5776 5775 5773 5771 5769 5768 5766 5764 5763 5761 5760 5758 5757 5756 5755 5754 5754 5754 5754 5754 5754 5754 5754
5788 5787 5786 5786 5785 5784 5783 5783 5782 5782 5781 5780 5780 5780 5779 5778 5778 5777 5776 5774 5773 5771 5770 5768 5767 5765 5764 5763 5761 5760 5758 5757 5756 5755 5754 5753 5752 5752 5752 5751 5751 5751 5751
5780 5780 5779 5778 5777 5777 5776 5776 5775 5775 5774 5774 5773 5773 5773 5772 5772 5771 5771 5770 5769 5767 5766 5765 5764 5762 5761 5760 5759 5758 5757 5755 5754 5753 5752 5751 5750 5750 5749 5749 5748 5748 5748
5771 5770 5770 5769 5768 5768 5767 5767 5767 5767 5767 5766 5766 5765 5765 5765 5765 5765 5765 5764 5764 5763 5762 5761 5760 5759 5758 5757 5756 5755 5754 5753 5752 5751 5750 5749 5748 5747 5746 5746 5745 5745 5744
5761 5760 5759 5759 5758 5757 5757 5757 5757 5757 5757 5757 5757 5757 5758 5758 5758 5758 5758 5758 5758 5757 5756 5756 5755 5754 5753 5752 5752 5751 5750 5749 5748 5747 5746 5745 5744 5743 5743 5742 5741 5740 5740
5748 5748 5747 5747 5747 5746 5746 5746 5747 5746 5747 5747 5748 5748 5748 5749 5749 5750 5750 5751 5751 5750 5750 5750 5749 5749 5748 5747 5747 5746 5745 5745 5744 5743 5742 5741 5740 5739 5739 5738 5737 5736 5735
5735 5734 5734 5734 5734 5734 5734 5734 5734 5735 5735 5736 5737 5738 5738 5739 5740 5741 5741 5742 5743 5743 5743 5743 5743 5742 5742 5742 5741 5741 5740 5740 5739 5738 5737 5736 5736 5735 5734 5733 5732 5731 5730
5720 5720 5719 5720 5720 5720 5720 5720 5721 5721 5723 5724 5725 5726 5727 5728 5730 5731 5732 5733 5734 5734 5735 5735 5735 5735 5735 5735 5735 5734 5734 5733 5733 5732 5732 5731 5730 5729 5728 5727 5726 5725 5724
5704 5704 5703 5703 5704 5705 5705 5706 5706 5707 5709 5710 5712 5714 5715 5717 5718 5720 5721 5722 5724 5725 5726 5727 5727 5727 5728 5728 5728 5727 5727 5726 5726 5726 5725 5724 5723 5722 5721 5720 5719 5718 5717